GFSGBSN_sfc_rhum_000.txt.gz
RH
71 71 71 74 76 76 77 78 78 78 78 79 79 80 81 81 81 81 81 82 85 84 85 84 83 83 89 44 25 15 57 77 68 39 19 14 14 19 22 21 18 19 19 29 33 33 35
72 72 73 73 75 77 78 78 77 78 78 79 79 82 84 83 81 81 83 87 87 85 84 84 81 82 80 30 16 18 35 59 42 24 18 12 13 17 20 19 16 16 28 33 36 39 41
74 75 75 73 74 76 78 78 78 78 79 80 80 80 83 84 81 81 85 88 86 85 84 83 79 81 77 22 16 26 30 38 29 18 18 14 14 17 18 21 16 27 35 33 38 41 51
75 76 76 75 76 78 78 78 78 80 82 84 84 82 80 81 82 86 90 90 87 84 87 83 81 91 44 26 29 34 27 18 17 18 14 13 15 16 17 18 24 32 37 43 37 40 46
76 76 76 75 74 80 82 80 79 81 84 85 86 86 86 86 87 89 91 90 86 84 84 82 93 85 46 34 28 28 21 17 14 15 14 10 15 16 17 19 38 34 45 45 43 37 43
75 75 75 75 75 80 82 82 82 82 84 85 85 86 87 88 89 90 89 90 85 87 86 78 70 66 33 21 23 22 22 14 14 12 13 14 16 21 24 26 49 42 44 44 46 36 44
75 74 74 75 76 79 80 80 80 81 83 85 86 87 88 88 87 89 89 73 33 39 78 39 37 36 24 20 21 22 16 15 11 10 12 13 16 20 21 17 22 29 38 34 39 35 46
74 75 76 77 77 78 77 77 81 82 84 86 87 87 88 88 88 90 95 33 37 40 27 25 23 24 20 26 23 17 14 18 18 16 16 18 16 15 15 19 21 29 31 36 33 33 41
75 76 79 79 78 80 79 80 84 86 86 86 87 87 89 84 88 81 68 34 36 43 36 23 24 23 23 23 23 20 17 16 16 17 14 16 14 14 18 22 18 24 21 24 28 40 50
76 81 82 80 80 81 82 83 84 86 86 86 86 87 85 87 49 93 54 44 43 37 41 29 26 20 26 28 29 17 16 15 13 16 12 13 10 14 19 21 21 27 18 18 30 39 49
79 81 81 81 82 81 83 85 86 85 85 85 85 87 85 85 97 83 34 66 48 36 41 20 22 17 22 21 18 20 15 16 19 13 14 15 13 15 22 18 18 18 19 21 32 40 50
76 76 76 79 80 81 84 85 85 85 85 85 85 87 86 90 89 86 72 73 39 32 42 23 24 20 24 23 18 16 16 15 15 14 14 13 11 13 12 16 16 16 16 26 38 45 54
75 74 75 78 82 82 83 83 84 86 85 84 85 88 89 74 66 70 58 30 33 41 22 20 24 21 20 20 20 18 17 17 21 24 24 18 11 13 14 16 21 17 24 31 38 54 50
77 78 80 82 84 82 82 83 84 84 85 84 85 91 92 84 92 80 39 24 52 27 25 24 21 21 20 20 20 18 17 23 20 18 24 20 16 13 13 15 18 20 21 31 32 42 45
77 78 80 82 82 83 82 82 83 84 84 84 89 97 96 85 82 70 28 29 30 35 26 26 20 27 27 20 18 21 21 19 18 15 17 23 20 14 13 13 13 21 22 20 28 50 37
76 74 78 80 82 83 82 81 83 84 85 86 96 95 84 73 71 44 33 28 22 24 20 15 28 25 28 25 20 21 24 18 13 13 14 17 21 14 11 15 16 15 18 22 32 37 48
74 74 75 77 80 82 81 80 83 85 86 88 97 50 25 78 51 41 29 24 16 15 14 12 24 29 29 25 21 24 20 17 14 14 14 16 19 15 15 15 13 22 24 28 28 33 33
75 75 76 76 80 80 80 80 83 87 90 84 96 27 33 48 53 57 40 26 28 15 16 17 22 19 20 20 21 22 21 16 14 14 16 15 16 17 15 15 14 14 18 21 20 30 39
78 76 76 73 77 74 78 79 84 88 89 94 98 93 67 46 64 58 51 38 31 33 31 32 24 18 19 23 29 22 19 15 14 17 18 17 20 18 18 17 23 19 24 27 28 34 41
73 74 73 72 73 72 75 78 82 86 87 97 88 85 74 56 61 56 44 33 34 27 31 28 29 29 29 32 29 25 27 23 22 25 53 33 20 16 16 14 17 23 23 26 22 33 34
74 75 74 71 72 73 75 78 80 82 86 94 82 94 91 89 65 76 55 42 38 37 30 31 37 36 36 41 37 31 23 23 29 46 35 17 17 18 12 14 18 17 20 26 24 24 23
77 76 74 73 73 73 71 76 78 78 84 89 95 98 96 99 86 60 69 50 44 39 37 33 41 35 39 41 36 34 34 37 39 52 41 27 20 23 14 12 15 14 16 24 24 26 25
76 75 74 72 74 72 71 75 77 78 85 98 93 87 95 85 92 73 57 58 48 46 37 30 31 44 51 46 40 38 37 37 58 48 66 48 25 29 20 20 19 25 14 18 21 25 22
76 76 75 76 75 73 73 74 74 78 84 95 68 89 98 76 81 69 62 64 54 45 48 32 31 43 47 33 33 44 49 37 46 57 68 70 37 34 20 32 33 16 30 15 20 40 39
75 75 74 74 76 77 72 74 72 76 80 96 81 98 98 87 70 70 66 58 49 45 41 37 31 35 37 42 49 44 50 42 37 44 60 71 47 40 35 34 30 44 46 37 30 42 48
75 75 74 75 76 75 74 74 71 72 79 95 98 96 96 95 75 61 78 71 71 48 41 35 34 31 55 57 58 57 56 57 60 43 57 54 61 55 59 36 44 48 54 52 52 44 50
80 79 78 76 76 72 73 70 71 71 79 95 97 93 99 99 69 72 73 71 53 54 54 46 41 58 79 80 69 65 56 46 65 60 74 77 77 69 70 66 57 61 58 54 39 49 62
82 82 83 78 76 71 72 72 73 73 70 91 93 89 97 94 73 69 62 69 64 60 62 52 58 86 94 93 88 82 71 65 66 55 68 67 82 92 82 70 65 61 59 46 57 61 63
81 81 80 79 75 70 75 72 72 71 70 78 98 90 82 99 83 72 69 59 59 56 62 56 54 70 96 93 92 95 89 80 78 76 63 70 78 87 83 79 79 79 76 69 62 47 52

GFSGBSN_sfc_rhum_006.txt.gz
RH
74 71 72 75 74 74 73 72 75 75 76 77 77 79 80 81 81 81 81 84 85 84 83 82 82 80 50 20 10 14 54 58 25 24 11 10 7 8 7 7 7 10 9 8 9 14 14
75 74 74 76 75 72 76 74 74 75 77 78 79 81 83 83 82 82 82 86 86 84 82 82 79 80 37 14 7 13 20 25 16 15 9 7 6 5 6 7 8 8 8 9 8 12 16
76 75 73 75 76 75 77 75 75 75 78 78 81 81 82 82 81 82 84 85 84 83 83 81 79 55 32 11 8 9 12 13 15 12 9 7 5 5 6 8 7 8 12 16 15 15 20
75 75 72 74 76 77 77 77 75 75 77 80 81 80 80 80 81 84 87 88 86 84 82 84 79 47 20 11 13 14 12 12 13 14 10 8 6 6 5 7 9 10 11 14 17 19 22
75 77 73 76 77 80 80 78 76 76 78 83 82 82 84 84 86 87 88 89 84 80 79 79 57 42 15 28 16 12 12 10 10 11 10 7 7 8 7 10 11 11 14 13 22 20 25
70 73 75 77 76 80 81 80 79 78 80 83 84 84 85 84 86 86 86 88 77 81 67 54 47 42 19 11 13 11 13 8 10 12 11 9 9 8 8 8 13 14 14 12 16 22 23
73 74 76 76 77 79 79 77 77 77 79 82 85 85 84 84 85 86 67 21 29 32 41 17 11 15 9 9 11 10 11 8 8 10 9 8 8 8 8 9 9 10 12 14 13 18 22
75 76 76 76 77 78 78 78 79 79 79 82 84 84 85 84 84 84 52 10 16 16 12 7 6 8 7 8 11 8 9 12 10 11 8 7 8 6 6 8 9 10 12 13 12 18 20
75 77 78 78 79 80 83 83 83 82 84 84 84 84 84 86 83 56 20 16 16 12 12 7 7 7 8 8 11 10 9 11 11 10 8 8 5 5 6 7 10 11 12 13 15 20 18
77 81 82 80 81 82 84 84 83 82 84 85 84 84 84 87 46 23 17 18 17 16 12 9 11 11 13 11 13 9 7 9 10 10 8 6 4 5 7 9 9 12 9 10 13 18 22
81 82 83 83 82 83 85 84 84 82 84 84 84 83 84 88 40 22 17 14 15 17 17 10 11 10 12 14 11 12 7 8 10 10 9 9 6 7 7 7 7 11 8 10 12 16 18
80 81 80 80 80 83 85 86 86 84 84 84 84 83 82 38 37 26 19 19 21 20 19 10 11 12 13 12 11 13 10 8 8 9 10 9 6 5 6 5 6 8 10 11 12 13 20
80 80 78 80 81 82 84 86 85 85 86 85 84 81 75 40 18 18 20 12 15 15 11 10 10 10 9 8 10 11 13 12 12 17 16 10 8 5 4 7 6 8 12 19 21 18 19
81 82 82 81 82 83 84 84 84 85 86 85 83 83 52 34 29 28 21 10 18 10 10 10 10 10 11 9 9 10 12 11 10 11 11 14 12 8 6 6 9 10 11 15 27 18 16
86 84 83 82 82 83 84 83 84 85 83 85 84 27 24 26 34 30 18 10 11 10 8 7 7 11 10 9 9 11 11 10 8 9 14 13 13 6 6 6 6 10 12 9 12 12 13
85 84 84 84 85 83 83 81 83 84 82 84 51 34 23 25 39 33 18 15 8 5 7 9 11 9 10 8 10 10 10 9 9 8 10 12 16 9 7 6 6 7 8 13 12 25 24
81 83 82 80 82 82 81 81 82 84 85 82 42 27 26 37 40 33 20 11 8 4 6 9 9 9 10 10 11 10 10 9 9 9 11 11 14 11 9 9 8 8 9 12 11 13 18
81 82 83 82 81 82 79 80 82 86 88 65 38 24 28 34 36 20 19 12 19 7 5 5 7 7 9 10 12 12 11 10 8 9 13 12 13 16 9 6 5 6 9 11 14 24 14
80 81 79 80 81 78 78 79 83 86 84 49 43 27 17 28 25 17 17 14 12 12 8 6 6 7 7 10 14 11 9 7 7 10 13 12 16 20 16 7 7 7 7 9 10 12 22
80 80 79 79 78 77 76 79 83 84 82 55 42 26 18 32 21 29 28 31 23 13 12 8 9 8 8 10 10 13 12 8 9 8 52 25 12 19 15 16 9 11 8 7 8 12 15
74 74 75 76 78 76 76 79 84 82 80 58 40 28 43 27 31 47 45 38 31 21 16 14 15 14 12 15 14 14 13 12 13 27 21 21 27 17 13 10 9 9 8 8 9 10 14
76 76 75 74 75 76 75 79 83 79 80 68 60 49 50 46 41 38 37 36 33 24 24 24 22 14 13 17 16 16 13 15 13 13 15 17 29 22 19 12 11 11 10 8 7 8 8
76 75 74 75 74 74 74 77 82 82 86 69 49 44 56 46 35 37 29 30 31 36 29 22 25 27 26 20 19 18 17 19 18 19 21 24 25 31 27 15 15 18 13 10 9 7 8
78 77 75 75 74 74 73 73 77 82 87 96 62 52 78 47 28 37 34 37 37 37 45 34 28 30 25 21 20 17 17 19 20 21 19 32 39 30 27 27 31 14 10 10 9 8 8
75 74 76 78 77 75 76 74 74 80 82 99 92 84 90 72 39 37 37 38 36 39 43 44 31 23 21 24 27 29 23 27 23 19 21 23 32 30 30 25 22 18 15 12 12 11 8
77 75 72 72 76 77 75 75 75 75 82 96 97 85 93 78 40 37 41 53 49 45 36 33 32 27 25 24 26 40 28 25 24 23 20 21 30 29 29 31 35 31 34 32 32 25 10
76 78 76 74 75 77 75 73 71 72 80 96 97 88 96 98 44 40 41 40 35 38 39 36 53 37 33 43 32 29 24 18 22 31 37 35 35 28 30 34 26 40 37 32 40 22 11
78 77 78 78 77 77 75 73 71 71 68 92 96 87 97 98 76 54 39 44 56 49 48 44 47 49 49 71 43 26 23 20 20 26 41 40 36 27 33 42 38 43 35 41 46 39 33
77 75 78 80 77 75 73 73 69 71 72 82 92 76 91 99 71 47 41 36 39 33 39 41 47 50 36 59 61 53 55 31 30 25 30 31 26 27 34 29 53 46 51 46 35 38 34

GFSGBSN_sfc_rhum_009.txt.gz
RH
75 74 74 75 76 73 76 75 76 75 76 76 78 79 80 79 79 80 81 83 84 83 82 81 81 81 49 16 9 17 66 59 26 16 14 9 9 9 10 7 7 8 9 8 8 9 10
75 74 72 73 74 76 76 76 75 75 75 76 78 81 83 82 80 79 82 85 85 83 82 81 80 82 35 15 5 9 10 15 11 13 9 8 8 6 7 7 7 7 7 7 8 7 10
73 74 71 75 76 78 78 77 76 76 77 78 80 80 82 82 78 78 83 86 83 83 83 83 80 52 20 12 5 6 10 10 9 9 9 6 6 5 6 7 6 7 9 9 9 8 11
72 73 75 76 77 77 78 76 76 76 78 78 80 81 82 81 78 82 85 86 84 84 82 82 81 38 18 6 7 6 6 7 7 8 7 5 4 5 6 6 7 8 8 11 10 9 10
75 76 76 75 76 79 80 78 76 79 81 82 82 83 83 84 83 84 85 84 83 84 77 78 51 31 14 23 11 8 7 9 8 7 8 6 6 6 6 7 8 9 11 11 13 10 13
77 76 75 75 76 80 82 81 80 81 81 82 83 84 83 84 83 84 84 87 64 80 67 42 32 29 16 10 8 8 8 7 7 8 9 9 7 7 7 8 12 13 11 10 16 11 14
75 73 75 76 77 80 80 81 81 82 81 82 83 84 84 83 83 83 62 16 24 37 30 16 13 11 9 7 9 8 8 8 6 9 10 7 7 7 8 8 8 9 10 10 10 10 14
78 75 75 78 79 81 82 83 84 83 82 82 84 84 84 83 82 81 54 11 11 10 11 6 6 6 6 5 7 8 8 8 8 10 9 7 7 5 6 7 8 9 10 11 10 12 12
76 77 78 82 82 83 84 84 84 84 83 83 84 84 84 84 77 54 10 12 9 8 10 6 5 5 5 4 6 6 6 9 8 8 8 6 5 5 6 8 9 9 10 10 10 15 14
80 80 82 83 83 83 84 84 84 84 84 84 84 84 83 84 42 14 12 11 9 9 13 7 6 5 5 6 6 4 5 6 9 9 7 6 4 4 5 7 8 10 8 8 9 17 20
82 83 83 84 82 83 83 83 85 85 84 84 85 84 83 83 35 19 10 8 8 11 16 7 7 6 7 8 8 8 6 6 10 8 7 7 5 5 6 6 6 9 7 9 9 12 22
83 83 83 82 82 82 84 84 85 85 84 84 84 83 82 32 25 19 12 10 11 16 18 8 8 10 11 9 7 8 8 6 7 8 7 7 4 4 4 4 6 6 8 9 9 10 15
84 84 85 84 84 84 84 85 85 83 84 85 85 83 70 38 18 10 10 11 13 15 8 8 8 7 8 8 8 9 9 9 10 13 12 9 7 5 4 5 5 7 9 14 16 14 14
85 86 86 87 86 85 85 85 86 84 85 86 86 78 46 22 19 18 16 12 19 10 9 5 6 7 8 6 7 8 10 9 8 8 8 11 11 7 5 5 6 7 8 12 24 16 13
86 86 86 88 87 87 87 85 86 85 86 86 83 24 18 14 15 17 17 14 13 11 7 6 6 8 8 6 6 7 10 9 8 7 11 10 11 6 5 4 4 7 9 7 10 11 12
85 84 84 85 86 85 85 84 85 84 85 85 50 34 18 13 20 22 21 20 10 7 5 6 9 7 10 8 8 8 9 8 7 6 6 9 13 7 5 4 4 5 5 9 10 22 21
79 80 82 83 84 85 83 83 84 84 86 82 46 22 15 16 24 30 23 16 12 8 6 6 8 9 7 7 7 8 9 6 6 7 7 7 10 10 8 8 7 6 6 8 8 11 16
80 82 83 82 84 84 81 83 84 86 88 66 32 29 16 20 34 26 26 19 21 9 7 6 6 8 9 8 8 8 8 7 5 6 8 8 9 14 10 7 6 5 7 6 11 21 12
79 79 78 79 82 79 79 82 84 86 86 45 38 28 16 13 23 20 20 16 14 14 12 9 7 6 7 9 12 9 8 6 6 7 10 8 12 15 15 9 7 8 7 6 6 9 20
75 74 74 75 76 75 78 82 86 84 82 56 46 31 17 16 17 18 18 18 17 12 12 10 10 8 7 9 8 10 9 7 6 7 45 21 11 17 14 16 9 10 8 6 6 8 12
76 76 75 75 74 74 75 80 83 83 79 68 51 34 24 34 24 34 43 54 35 43 24 16 15 12 10 11 10 10 9 8 7 16 13 11 19 14 12 10 10 8 6 6 7 8 11
76 76 76 76 75 74 74 79 82 81 79 82 71 53 41 36 34 37 42 34 28 28 32 37 28 15 12 14 11 11 9 11 12 8 12 11 20 18 16 10 9 10 8 7 6 6 7
75 75 76 76 77 76 74 75 79 84 86 96 68 70 56 47 32 30 27 36 31 20 31 39 44 49 32 18 20 18 13 8 10 14 16 17 18 25 25 15 14 16 11 9 9 8 7
75 75 75 75 74 76 77 75 77 81 84 92 91 89 83 44 36 42 41 34 39 38 44 30 33 52 36 23 18 16 15 15 15 13 10 19 25 20 21 21 28 14 10 9 10 9 8
75 74 74 77 73 73 72 76 76 78 84 97 95 98 96 52 38 33 37 40 40 32 28 28 28 31 30 24 26 31 24 26 21 17 18 18 22 24 27 26 35 27 21 20 21 15 9
75 75 76 76 75 73 73 74 72 75 82 85 96 96 98 94 48 49 54 50 60 42 33 21 23 28 34 32 30 40 31 25 25 18 14 17 25 27 28 30 30 18 26 20 18 21 11
77 76 77 77 78 76 74 73 71 71 76 86 94 93 98 99 72 51 51 66 44 69 58 56 40 40 30 35 33 30 22 18 22 24 24 20 24 26 26 29 22 25 22 22 28 26 32
78 78 77 74 78 77 75 72 72 72 72 72 73 76 98 98 78 54 41 45 40 36 47 79 32 45 42 54 42 28 24 19 21 22 24 24 26 23 25 28 30 29 24 28 40 33 29
81 81 78 73 77 75 73 70 72 68 70 72 86 77 83 99 68 46 40 34 34 30 30 30 40 51 36 72 72 67 78 57 31 29 17 21 19 21 23 24 43 39 40 35 31 32 30

GFSGBSN_sfc_rhum_015.txt.gz
RH
74 74 75 76 80 81 79 77 78 80 78 76 77 79 79 79 79 80 79 81 82 82 78 79 79 82 73 42 26 13 70 69 40 25 17 14 12 13 14 15 14 16 17 17 20 20 18
76 74 74 74 77 78 79 78 77 79 79 79 80 82 83 83 82 82 82 82 82 81 78 77 79 82 79 30 8 7 26 31 20 19 14 13 13 11 13 14 15 12 12 14 13 22 17
79 76 74 77 78 79 78 78 78 78 79 80 82 82 83 83 81 80 83 83 83 79 76 77 80 69 48 20 7 13 14 20 17 13 14 11 11 13 12 14 11 11 12 10 10 11 19
82 81 78 78 80 82 82 79 78 80 82 84 83 83 83 83 84 83 83 83 82 77 76 77 80 64 54 12 11 10 8 8 12 11 12 11 10 12 13 11 11 12 12 16 11 10 11
80 81 82 80 81 82 83 84 82 83 84 84 84 83 83 83 83 82 82 82 80 73 74 79 88 80 47 22 17 11 8 9 10 10 11 8 10 12 11 13 17 15 16 15 12 9 14
81 81 80 79 80 83 83 83 83 82 82 83 84 83 82 82 81 81 83 77 66 72 77 60 45 58 37 19 12 10 9 8 9 9 10 12 15 15 13 14 20 18 16 13 13 13 14
82 81 79 80 83 84 84 83 83 82 82 82 83 82 83 82 81 82 75 59 36 47 52 43 38 24 12 10 10 10 8 9 9 10 14 14 18 17 14 10 11 12 13 13 11 13 32
83 84 83 85 86 86 86 84 84 84 82 82 84 83 84 84 83 77 77 49 21 12 17 10 9 13 18 18 18 10 8 12 12 15 15 14 16 14 11 10 9 10 13 13 11 13 29
86 86 87 87 87 87 87 86 86 85 85 85 85 83 84 85 78 64 30 23 14 10 16 11 9 9 8 9 16 15 11 12 14 15 14 14 15 11 10 11 11 11 13 13 14 15 25
86 86 87 87 87 87 88 88 87 87 87 86 86 84 84 88 52 41 32 18 14 10 24 14 9 8 7 7 10 9 10 11 14 14 12 12 11 10 11 10 9 14 10 11 11 13 30
86 87 87 87 87 88 88 89 89 88 88 86 86 85 85 86 71 55 27 22 17 16 34 10 8 5 6 8 8 10 10 9 14 14 12 12 12 12 11 8 6 10 10 11 11 14 25
87 86 86 87 88 88 88 89 89 88 87 87 87 85 84 60 50 43 30 22 21 29 31 12 7 7 7 7 6 6 10 8 8 13 12 12 9 8 9 8 6 6 9 11 12 14 21
84 85 86 87 88 87 86 86 87 88 88 88 88 86 81 60 56 22 36 30 31 29 13 12 10 8 7 8 7 6 7 9 10 12 14 11 11 10 7 9 7 6 11 16 21 21 25
83 83 83 85 84 85 86 87 88 88 89 89 90 85 66 42 41 44 44 34 36 20 16 11 11 10 11 9 7 7 9 9 8 10 14 15 15 11 9 8 10 7 8 13 29 26 22
83 82 83 83 84 86 87 87 88 89 89 88 88 50 44 34 28 35 39 45 29 21 15 14 14 13 12 10 11 9 10 10 8 8 14 14 15 11 9 8 7 10 9 7 15 19 24
81 82 82 83 84 84 84 85 86 87 88 87 78 61 50 33 26 29 41 47 28 17 18 22 27 18 21 16 14 13 10 10 10 8 9 14 22 12 9 8 8 7 9 11 9 17 22
81 83 83 83 84 83 83 83 84 86 88 85 75 52 27 18 18 33 42 38 29 22 21 23 24 24 21 19 16 15 12 10 8 10 9 10 13 13 12 11 10 10 8 10 11 12 18
82 82 83 83 84 83 84 83 84 87 88 72 56 61 24 24 38 32 33 29 37 27 24 26 25 26 26 23 22 18 15 11 8 8 11 9 12 15 12 10 8 8 12 10 14 23 22
80 80 80 80 80 82 83 84 84 87 87 70 68 55 32 28 41 35 29 25 23 22 20 19 23 23 23 27 31 22 18 12 8 8 10 11 11 18 17 13 9 10 9 11 8 17 19
79 78 77 78 80 80 81 84 86 84 84 77 82 63 35 34 29 31 32 45 53 38 40 30 31 32 38 39 36 33 28 18 11 8 39 30 14 12 17 18 16 19 10 9 10 11 11
76 75 76 78 76 77 78 82 86 86 80 88 94 68 45 65 61 57 45 64 53 45 37 40 38 49 58 62 63 49 43 46 32 23 17 19 15 14 13 12 11 10 12 9 10 10 14
79 78 77 78 76 75 77 80 83 85 82 93 97 78 62 68 59 52 50 36 39 32 37 49 52 65 66 70 78 84 64 61 56 37 37 29 29 26 22 15 10 11 11 12 9 9 10
78 77 76 75 76 74 75 79 82 84 88 96 90 77 97 89 64 62 59 42 51 50 50 54 50 53 61 53 67 66 56 49 49 50 46 36 33 36 26 20 20 20 12 12 14 11 12
83 79 77 77 76 75 74 77 80 83 87 96 94 97 98 85 71 56 49 41 42 53 48 43 45 45 44 41 38 44 41 40 38 33 28 31 32 36 30 32 38 25 15 14 14 16 14
82 81 79 78 77 75 73 75 77 82 84 97 96 100 99 97 70 60 47 48 50 48 42 45 36 39 56 48 68 72 48 39 30 25 25 23 29 39 38 30 28 21 17 18 20 18 15
82 83 82 78 78 76 74 73 75 80 82 93 97 96 100 100 79 52 66 57 56 67 58 46 43 54 66 66 89 99 79 60 53 34 19 19 25 34 39 36 31 25 19 24 27 39 37
80 82 80 78 77 76 74 75 73 72 78 93 97 89 99 100 85 68 68 76 62 72 82 67 74 64 83 76 91 90 93 54 58 58 40 31 44 42 39 28 29 26 25 26 38 53 45
84 84 84 79 77 76 74 73 72 70 72 90 92 88 98 99 81 64 59 69 60 57 77 76 89 88 86 90 72 86 84 60 67 59 56 53 47 46 49 49 49 45 33 41 53 49 38
84 83 83 82 80 74 72 70 69 69 70 74 70 85 92 100 91 66 63 58 56 51 56 75 88 86 94 95 77 84 75 88 88 87 51 64 81 71 45 60 68 66 62 60 50 49 44

GFSGBSN_sfc_rhum_021.txt.gz
RH
76 76 76 76 79 79 77 77 76 78 77 77 77 78 79 78 77 77 77 78 79 79 78 78 76 77 86 59 25 9 68 66 60 35 26 23 22 22 18 18 19 37 30 22 28 24 34
78 78 77 77 78 78 79 79 77 78 79 80 81 83 83 83 83 80 80 81 82 79 78 77 76 75 82 15 8 14 15 42 40 36 32 24 20 17 18 16 17 19 18 18 20 25 24
81 80 79 79 79 81 82 82 80 79 80 81 83 84 84 84 84 83 82 82 82 80 79 78 76 77 85 14 9 14 21 30 34 29 27 23 18 15 16 18 14 17 20 17 16 19 30
84 82 81 82 83 85 86 84 84 85 86 85 84 84 84 84 84 84 82 82 83 80 79 76 77 84 49 26 23 14 11 12 23 27 20 20 18 19 21 19 17 18 21 22 16 17 26
86 86 86 84 85 87 87 87 87 88 87 86 86 85 85 85 84 84 83 83 80 76 76 78 88 90 42 34 38 26 15 12 13 17 22 15 18 21 21 23 24 22 25 21 18 14 30
81 83 83 81 84 88 88 87 87 87 87 86 86 86 86 85 85 85 82 84 77 81 78 70 63 69 40 18 30 20 18 11 12 13 20 19 22 24 26 24 29 25 23 21 20 21 31
80 81 80 80 83 87 88 88 87 86 86 86 87 87 86 85 85 81 87 76 36 41 65 52 56 40 22 18 19 20 14 13 16 19 25 22 28 31 25 21 19 19 20 19 17 18 34
81 82 80 80 84 86 86 86 86 86 87 87 87 87 87 86 84 84 77 38 37 39 47 26 25 22 21 23 20 16 13 14 18 21 20 24 24 22 20 19 18 17 18 17 16 14 25
80 82 83 84 86 86 86 86 86 87 87 87 87 86 87 88 84 68 66 45 38 45 41 21 18 17 16 19 24 19 18 16 19 21 19 21 19 17 18 20 18 20 18 16 16 20 30
83 87 85 84 85 85 85 86 87 87 86 87 87 86 86 88 58 82 51 44 44 45 33 21 17 13 14 20 27 15 18 14 18 18 19 21 14 16 18 19 19 26 16 13 15 19 22
85 84 83 83 84 85 86 86 87 87 87 87 86 85 84 86 94 91 40 47 48 32 44 19 15 10 13 13 13 16 16 18 20 18 19 21 19 16 19 16 18 19 15 15 17 19 26
79 80 80 82 83 86 86 87 87 87 86 87 86 85 85 86 96 77 59 60 43 27 38 18 13 13 15 14 10 13 14 19 17 19 21 17 16 14 17 15 14 16 19 16 21 24 31
78 78 79 82 84 86 87 87 87 88 88 88 87 85 86 73 84 66 65 48 32 38 20 21 25 23 22 14 12 13 14 19 23 28 26 22 17 15 14 18 19 18 20 27 25 27 23
77 81 82 83 84 85 85 86 87 88 89 88 86 88 80 58 76 82 70 41 45 26 25 26 28 26 22 25 16 19 18 20 19 21 28 27 30 19 15 16 19 20 19 31 28 30 23
77 79 81 82 84 84 84 84 86 88 88 89 88 80 96 74 53 70 68 60 39 33 30 32 30 32 36 33 29 29 27 18 18 17 21 27 25 16 15 14 13 18 19 15 20 51 27
75 77 79 82 83 83 83 84 85 86 88 89 98 100 95 64 51 67 76 74 54 34 30 34 43 40 49 41 37 39 35 22 21 21 18 18 22 16 13 14 15 15 14 21 23 24 24
75 76 79 82 82 83 83 84 84 86 88 89 96 96 60 46 54 73 92 80 48 34 30 35 40 42 45 43 38 42 38 34 37 37 27 24 19 18 14 17 16 19 18 20 17 19 18
77 80 82 82 82 82 83 83 85 88 90 89 97 95 49 53 63 75 80 67 54 40 39 43 40 41 45 45 50 39 38 36 41 41 51 42 29 19 18 16 10 13 14 18 20 21 24
79 81 81 81 82 82 82 82 85 88 88 98 99 99 71 56 90 83 72 53 45 48 48 48 48 46 56 56 54 59 55 42 46 48 64 59 56 29 21 18 19 17 18 13 16 20 17
78 78 77 80 81 80 81 83 86 86 87 94 98 96 86 75 79 85 83 68 70 50 48 51 47 58 70 74 62 66 58 50 43 41 55 52 62 46 30 23 21 19 16 15 14 19 16
77 78 77 77 79 79 80 83 86 86 84 93 97 95 91 97 91 96 74 72 73 73 60 53 61 64 79 91 85 75 62 65 48 54 54 65 79 52 43 35 28 17 16 13 16 14 16
78 78 76 76 77 79 78 83 84 85 84 95 97 96 83 88 80 74 80 71 75 58 57 61 91 70 61 85 74 71 70 79 73 62 59 70 73 61 49 29 24 23 16 15 12 12 13
78 77 76 76 75 77 77 81 83 84 87 98 96 85 98 84 85 86 78 73 69 64 56 56 60 67 62 65 70 67 59 72 66 73 78 79 77 74 70 41 36 28 18 14 13 12 12
77 77 76 76 76 75 75 78 80 84 85 98 97 96 100 92 79 75 70 67 70 70 77 60 53 66 58 62 68 68 74 64 58 62 61 80 77 73 70 55 50 21 13 12 13 15 16
77 77 77 76 75 75 74 75 76 81 85 99 98 99 100 98 74 70 67 69 71 75 73 64 54 54 65 83 87 83 80 81 68 54 64 62 69 75 68 67 44 25 21 14 17 17 19
77 78 78 76 75 74 73 72 72 80 84 97 99 98 97 100 87 71 83 76 91 87 82 73 58 60 83 94 96 92 91 84 68 63 50 61 54 51 65 62 52 37 60 60 19 19 32
80 79 79 78 76 75 73 71 71 72 80 95 98 96 97 99 86 83 84 92 82 89 94 82 80 84 85 97 98 99 94 75 80 82 75 69 70 67 58 59 48 73 85 69 36 20 46
83 82 82 80 77 76 75 74 73 72 73 90 97 97 99 98 76 71 73 75 72 76 92 81 90 91 96 98 88 94 97 85 85 81 82 75 86 79 61 65 68 82 84 88 84 87 58
85 85 85 85 82 77 76 76 75 74 75 81 95 93 98 100 88 73 72 63 61 66 71 82 81 90 92 99 100 100 99 95 91 96 72 85 81 86 61 65 91 85 94 90 93 97 97

GFSGBSN_sfc_rhum_024.txt.gz
RH
79 79 79 79 81 81 80 78 80 82 80 79 78 80 80 79 79 78 78 78 79 78 79 79 78 77 87 62 22 56 71 65 75 44 53 47 68 52 34 40 48 54 45 32 25 27 45
82 82 81 81 80 80 81 81 80 82 83 82 84 84 85 85 83 81 81 83 83 79 79 79 77 76 86 14 8 16 59 65 68 47 33 28 30 25 24 20 29 21 28 24 20 24 28
84 83 82 82 82 82 83 82 81 82 82 83 84 85 86 85 84 83 82 82 82 81 81 80 77 78 90 11 10 14 45 45 43 34 33 27 21 20 20 21 15 17 21 20 20 20 27
82 81 81 81 82 85 86 83 82 83 84 85 84 84 85 84 84 84 82 84 84 82 81 81 77 84 38 23 29 24 14 23 37 35 26 27 20 22 23 19 19 21 23 25 20 21 25
82 83 82 81 82 84 86 84 82 85 86 86 86 86 86 85 83 83 81 84 80 78 78 78 88 91 32 35 39 27 13 12 24 36 28 15 21 23 25 24 27 27 28 24 21 17 29
80 81 80 76 78 84 85 85 84 84 85 85 86 86 86 85 84 84 82 84 78 83 75 70 68 68 42 22 31 28 20 11 15 21 20 24 26 30 30 28 23 30 26 25 22 22 38
77 78 78 76 78 81 82 82 82 83 84 85 85 86 85 83 84 81 83 57 43 44 49 69 62 44 30 20 20 22 18 14 17 21 28 27 33 34 29 25 21 22 23 23 20 21 39
79 80 78 78 78 79 79 80 82 82 83 86 85 85 84 83 82 83 69 44 45 44 59 34 33 29 29 24 22 18 14 16 18 23 25 28 30 26 24 22 21 20 22 23 18 15 20
79 79 79 80 81 82 83 84 86 86 86 86 85 84 84 86 84 74 75 48 47 58 60 31 28 25 23 23 23 21 15 17 19 22 24 25 25 23 23 24 23 25 22 22 22 20 26
78 82 84 82 83 83 85 86 86 86 86 87 86 84 84 86 57 92 49 59 58 57 42 26 20 17 22 24 26 18 15 16 20 17 22 24 19 20 24 24 22 32 19 16 16 19 22
80 81 81 82 82 84 85 86 86 86 86 87 87 85 84 86 93 91 42 60 56 43 48 22 18 12 18 20 17 21 18 23 21 21 21 24 21 20 22 21 21 22 17 17 17 19 26
78 77 76 78 78 82 85 85 85 86 86 87 88 87 86 88 97 88 73 69 55 42 51 23 15 17 18 16 14 18 19 21 18 20 24 20 19 17 17 17 18 18 19 21 26 28 31
75 76 76 78 82 84 85 85 85 86 87 88 88 87 90 77 74 70 81 57 36 47 25 28 31 28 27 21 16 19 20 24 23 32 29 24 19 19 16 19 21 21 26 36 34 33 27
75 78 81 83 84 84 84 85 86 87 86 87 87 88 84 67 72 76 78 42 55 30 30 31 32 30 30 33 30 30 21 22 26 26 29 29 32 19 18 19 22 24 26 38 37 35 26
76 79 81 82 84 84 84 85 86 86 86 88 90 95 88 76 56 76 65 61 47 41 34 36 36 40 42 38 36 34 33 24 24 24 28 34 30 19 17 16 16 25 24 20 27 52 29
77 78 80 82 84 84 84 85 86 86 87 88 99 95 91 66 57 71 80 79 62 41 39 37 51 44 52 46 41 42 39 50 46 37 34 27 34 19 18 16 17 17 18 25 31 37 38
77 78 81 84 84 84 84 84 85 87 88 89 97 96 55 56 61 76 84 88 62 45 40 48 47 47 49 49 44 41 42 56 47 46 43 51 24 23 20 22 20 23 21 25 22 29 32
77 82 83 82 83 84 84 84 86 89 90 90 97 92 49 56 73 87 84 66 62 58 46 48 48 56 58 53 51 44 56 61 42 48 69 69 52 30 22 19 16 16 19 21 24 28 27
78 81 82 82 83 83 83 84 87 89 90 99 100 97 74 61 96 96 77 56 48 65 66 58 52 57 62 64 59 63 54 51 43 47 72 61 59 36 24 18 20 20 19 20 17 27 23
77 78 77 80 81 81 83 84 88 87 87 96 98 94 90 77 90 94 87 80 65 48 66 68 61 64 74 78 73 74 67 54 46 49 54 54 72 56 48 43 41 36 25 20 18 21 20
77 76 75 76 78 79 82 84 86 86 85 94 97 94 90 98 87 79 70 82 77 76 58 68 89 77 75 89 81 77 59 63 51 56 55 65 71 65 55 46 39 36 31 26 23 17 20
77 76 75 75 76 76 80 82 84 84 83 96 96 95 87 88 81 75 68 86 76 63 67 68 92 92 64 86 80 86 76 84 75 64 65 73 68 73 62 40 37 40 32 27 23 20 21
78 76 76 75 74 75 77 81 82 84 86 98 95 91 97 96 91 97 86 76 71 68 64 61 68 72 70 62 70 67 68 67 71 78 76 79 78 76 72 53 45 38 26 22 22 19 17
78 77 76 76 74 74 76 79 81 84 86 97 96 98 99 96 99 81 76 66 74 72 83 71 66 73 56 65 73 75 91 84 73 74 69 79 84 79 79 63 58 35 28 23 19 16 17
79 78 77 77 76 75 74 74 76 80 85 98 98 100 98 96 72 70 65 59 74 81 82 78 65 57 59 80 90 82 76 87 83 68 66 64 78 80 70 71 40 31 50 75 86 54 18
78 79 78 78 77 76 74 74 74 77 82 98 99 98 99 100 82 65 88 73 91 82 86 78 60 65 85 95 97 94 81 75 78 73 64 65 60 70 79 70 62 44 78 68 81 72 30
79 81 81 79 78 76 76 75 74 74 80 95 98 96 100 100 80 74 85 86 89 80 88 70 72 81 85 89 91 96 94 78 83 83 92 81 80 84 73 73 55 42 84 76 51 62 90
85 85 85 84 81 79 77 75 75 75 77 91 96 97 99 99 76 68 65 77 69 73 87 77 89 92 95 99 87 87 99 86 86 63 81 88 93 92 75 79 67 82 81 87 84 92 83
85 85 85 85 85 82 78 78 78 80 79 84 97 97 98 100 94 75 72 63 61 66 68 81 84 86 94 95 96 96 98 97 98 93 76 84 84 87 60 58 72 91 94 91 86 89 86

GFSGBSN_sfc_rhum_027.txt.gz
RH
80 80 80 80 83 83 82 81 80 82 79 78 79 80 81 80 79 79 79 81 83 81 80 79 78 77 71 38 12 43 72 66 67 53 48 52 62 55 55 53 47 55 39 33 31 26 21
80 80 79 79 79 79 80 80 79 79 80 79 81 83 84 84 83 81 82 82 82 81 80 79 76 73 60 11 6 31 39 58 57 52 44 45 52 41 30 25 35 24 24 19 17 16 17
80 80 79 77 78 79 80 79 78 78 79 79 81 83 83 83 82 81 81 82 82 80 81 80 76 70 63 10 8 26 42 51 49 40 44 34 30 35 23 17 14 13 13 11 11 14 15
80 79 76 76 77 79 79 78 77 78 80 80 80 81 82 82 83 82 80 83 84 84 82 80 78 67 25 15 14 13 38 32 47 32 26 24 19 28 16 14 14 14 15 15 11 13 14
77 78 75 75 75 78 80 78 77 80 83 84 83 83 84 83 83 82 83 84 81 78 80 77 73 73 17 33 20 12 13 22 41 34 21 19 18 18 16 15 13 16 15 17 15 12 20
77 78 75 75 75 79 82 81 80 82 84 84 85 85 84 83 82 81 84 79 78 76 70 64 60 53 24 16 21 18 11 20 27 28 24 20 19 21 18 16 17 16 16 14 15 12 15
76 75 75 75 77 78 80 80 80 82 84 85 85 86 85 84 80 85 67 39 31 36 34 47 45 34 28 16 21 20 9 12 16 20 20 21 21 22 17 16 14 12 12 14 14 12 17
76 76 76 77 77 77 78 79 82 84 85 85 85 86 86 86 83 85 47 34 40 39 50 30 32 29 30 25 20 19 10 11 14 18 18 24 22 16 15 19 17 14 13 14 14 12 16
76 77 77 77 76 77 78 81 84 85 85 85 85 85 86 86 87 58 54 45 41 43 51 28 27 24 20 20 23 17 10 10 12 15 17 19 16 16 20 21 20 16 13 12 14 13 13
75 79 80 78 79 81 83 84 85 85 85 85 84 85 85 88 52 60 36 45 47 49 33 22 19 18 18 17 20 14 13 12 12 14 14 14 14 18 20 20 18 17 13 13 14 16 17
76 78 79 80 81 82 84 85 85 85 85 85 84 85 85 88 69 57 38 48 46 47 20 19 15 12 16 16 14 17 12 14 13 12 15 16 18 20 22 17 18 16 14 14 14 15 16
75 76 76 78 79 82 85 85 85 86 86 85 84 84 87 70 70 56 52 55 46 29 28 21 13 14 18 15 12 17 16 14 13 14 12 12 14 15 16 16 17 15 16 16 17 15 22
73 74 76 78 81 85 85 85 85 86 87 86 85 87 79 62 44 42 54 42 30 34 21 26 25 23 23 19 13 16 18 20 19 20 21 16 16 14 13 16 16 15 15 20 20 20 19
72 74 81 83 84 85 85 85 86 87 87 86 86 86 68 55 50 50 46 26 39 26 32 27 26 26 23 27 23 22 19 20 18 14 14 19 21 15 13 15 16 17 15 16 23 15 12
72 79 82 84 85 85 85 86 87 86 87 87 86 62 49 44 42 47 39 25 37 48 43 41 31 32 30 29 28 26 21 18 18 17 18 18 17 15 12 12 13 18 20 12 14 18 16
73 78 81 84 85 85 85 86 86 87 88 88 76 70 49 41 44 46 38 52 50 44 42 35 43 36 39 35 30 28 33 44 33 33 32 20 24 15 14 12 12 14 13 18 15 22 21
75 79 84 84 84 84 84 86 86 88 89 87 72 56 33 42 36 37 48 54 51 43 46 43 42 44 40 42 35 32 47 42 34 37 36 30 20 18 16 17 16 16 17 16 14 15 15
77 82 83 82 83 84 83 86 88 90 91 82 76 48 41 40 43 52 51 57 57 43 46 48 41 44 48 44 40 42 50 48 34 40 46 40 23 22 19 14 12 13 15 16 18 28 17
77 80 80 81 82 82 83 86 88 90 90 88 93 79 46 39 65 66 57 56 43 49 51 58 58 51 48 50 46 48 48 45 38 40 48 36 36 29 23 16 14 16 15 14 13 14 26
76 77 76 79 80 81 82 85 88 89 87 71 79 59 50 52 59 61 64 59 56 46 57 60 76 51 52 54 50 52 46 42 35 39 51 41 38 37 24 25 29 30 19 16 15 18 20
77 77 76 75 76 78 81 83 86 87 84 74 90 72 69 60 54 57 58 59 62 57 48 50 73 94 76 64 51 52 47 42 34 48 37 38 41 40 34 31 29 30 27 24 24 20 21
78 77 76 76 75 74 78 82 84 85 83 85 88 82 73 76 71 65 63 59 64 58 58 54 67 92 87 92 59 64 56 52 49 43 41 38 37 41 35 26 27 30 27 27 24 22 20
80 79 78 76 76 76 76 80 82 84 84 91 92 82 96 89 84 85 64 63 59 54 54 55 80 91 61 65 52 44 42 41 42 49 50 45 36 34 34 30 27 30 24 23 21 19 18
79 78 77 77 76 76 76 78 80 83 84 90 88 95 99 93 97 72 61 55 55 59 75 56 51 62 48 42 40 34 41 47 44 42 41 48 57 39 28 31 38 21 20 21 22 19 16
78 78 78 77 77 76 76 76 78 81 84 95 93 99 98 95 64 60 56 56 59 51 61 60 53 50 45 51 51 44 35 52 43 41 38 44 44 40 31 28 26 22 20 38 46 26 28
77 81 79 78 77 76 76 75 75 81 85 96 96 95 98 100 67 56 66 65 72 72 64 56 47 46 62 61 67 65 40 40 32 44 47 40 46 41 35 32 32 24 16 19 51 38 59
78 81 83 80 78 76 75 75 75 82 86 98 96 90 98 100 78 66 73 71 67 86 83 58 55 51 63 67 73 78 57 42 41 34 58 57 56 54 42 37 27 22 26 58 52 35 61
84 85 85 84 83 79 78 77 77 79 88 96 97 94 96 98 84 69 65 70 70 74 83 60 67 74 82 93 69 59 66 47 61 38 42 52 67 65 51 44 40 23 30 33 48 63 65
85 85 85 84 85 84 80 79 80 83 88 91 100 95 94 100 91 62 58 54 53 52 62 68 66 70 83 92 91 97 89 76 72 74 45 60 48 54 48 37 38 36 52 60 69 71 69

GFSGBSN_sfc_rhum_030.txt.gz
RH
79 78 76 75 78 78 76 76 75 76 76 76 76 78 80 80 78 78 79 81 81 79 79 79 77 75 54 22 9 10 67 56 40 22 20 23 32 27 26 27 27 33 23 20 20 18 16
77 76 74 73 73 76 76 76 75 76 76 76 78 80 82 82 82 80 81 82 83 80 81 79 76 72 34 17 4 6 18 26 28 21 19 21 26 21 22 24 26 18 21 19 14 12 12
78 76 71 72 74 76 77 76 76 77 78 78 81 82 83 83 83 82 82 84 80 83 87 83 76 54 35 14 5 7 19 24 25 22 19 18 19 24 17 20 13 17 13 10 10 10 11
78 75 72 70 74 76 77 77 76 78 81 83 82 83 84 84 83 82 81 85 84 85 80 79 77 46 24 10 9 13 17 23 25 22 16 17 18 23 17 11 11 12 11 13 11 9 9
74 74 71 73 73 77 78 77 77 81 83 84 84 84 84 84 82 83 85 84 82 78 77 76 55 39 18 24 9 7 19 23 27 22 20 17 20 20 17 20 12 11 14 15 14 10 11
72 73 73 74 75 76 80 80 79 82 83 83 84 84 84 82 82 84 86 80 79 74 57 48 37 40 19 12 10 6 10 12 28 22 20 20 16 15 16 15 17 14 13 13 15 12 11
74 74 74 74 75 76 79 79 80 81 82 83 83 83 83 82 83 86 54 23 29 39 22 28 24 19 18 11 14 8 6 15 20 24 18 15 15 16 11 12 11 11 12 13 12 11 11
74 75 75 76 76 77 78 80 83 83 82 84 84 83 83 82 84 85 33 22 33 34 34 18 18 18 19 20 17 11 6 15 16 23 15 15 16 11 9 9 11 11 12 12 11 10 12
74 75 76 76 77 78 80 83 84 84 84 84 84 83 82 84 86 45 29 33 28 29 32 17 16 15 15 15 16 13 8 10 14 16 13 13 11 10 10 11 12 12 12 12 12 11 10
73 79 80 79 80 81 84 84 85 85 84 84 84 82 83 91 47 29 22 24 27 30 29 11 15 16 14 14 16 12 7 8 10 13 11 10 9 11 11 12 10 12 9 10 10 11 15
75 74 79 80 81 83 85 85 85 85 85 85 84 82 83 90 38 27 28 24 28 33 16 14 13 10 12 14 12 13 10 7 9 10 10 12 10 12 13 12 10 11 7 9 10 11 13
75 71 77 79 81 84 85 86 86 86 86 86 85 84 86 40 28 23 24 27 33 28 17 14 11 12 14 14 12 12 14 8 8 9 9 10 8 9 11 10 10 9 9 10 11 9 14
71 74 78 80 83 85 86 86 86 87 87 86 84 84 67 34 29 23 24 28 22 18 12 22 20 16 15 12 13 12 16 18 17 18 15 12 10 9 9 12 11 11 12 15 15 13 12
72 78 82 84 85 85 85 86 87 88 87 87 86 87 54 29 22 26 27 24 24 16 29 23 23 19 19 16 14 11 15 17 15 13 12 14 14 10 9 11 13 13 11 11 20 11 9
74 79 83 84 84 85 85 86 87 88 87 86 86 25 22 21 23 28 28 20 17 37 34 31 23 23 18 19 19 16 14 14 14 12 16 14 14 8 9 10 10 14 14 7 8 10 10
74 77 81 83 84 85 85 85 86 87 87 87 43 27 22 20 21 26 23 35 31 31 30 28 32 28 30 26 24 19 15 24 16 12 19 16 17 10 9 9 9 10 10 11 10 20 19
73 76 82 82 83 84 84 85 86 87 88 85 34 26 23 20 20 18 22 29 29 23 28 33 32 33 31 32 28 23 26 29 24 24 26 17 16 14 11 12 12 11 12 11 9 10 12
76 81 81 81 82 82 84 85 87 89 90 60 33 23 24 22 22 24 26 34 45 25 24 29 31 28 32 33 32 30 34 35 28 27 25 19 16 18 14 9 8 9 12 12 12 20 12
79 80 80 80 81 81 82 85 88 89 90 48 39 34 23 22 32 32 32 31 29 30 32 35 43 41 33 36 40 35 36 31 25 27 34 26 20 22 17 12 11 12 11 10 10 10 20
77 77 76 79 80 80 80 84 88 88 87 55 41 34 25 26 29 34 40 35 34 27 34 30 63 60 50 32 29 38 33 28 24 25 44 35 22 23 18 18 14 17 12 11 11 13 14
78 78 77 76 76 77 80 82 85 86 85 55 41 39 46 42 36 42 43 39 38 41 33 30 65 88 93 59 41 33 36 29 25 33 25 25 31 30 22 24 21 16 13 12 14 14 16
78 78 78 77 76 76 78 82 84 84 82 49 47 58 46 52 45 50 46 46 43 46 43 40 47 47 60 91 67 81 47 36 34 30 29 24 33 32 31 21 21 21 19 17 15 14 14
77 78 78 77 77 77 78 82 83 83 79 57 51 50 76 81 54 52 43 43 46 44 38 42 39 42 39 48 44 41 34 30 29 36 35 33 27 32 31 22 22 27 22 19 18 16 16
78 77 76 76 76 76 77 80 81 84 91 94 69 69 94 89 64 56 51 46 44 47 51 37 38 41 36 31 32 28 25 24 24 25 25 36 36 27 26 27 38 19 14 15 17 16 15
78 77 77 76 76 76 76 76 79 80 89 99 96 94 94 97 54 54 48 50 46 47 41 40 35 35 32 37 37 35 27 30 26 22 22 25 34 29 31 27 22 18 17 17 20 20 14
79 81 81 77 76 77 75 75 77 79 86 99 99 97 96 97 62 53 59 54 57 52 41 36 33 30 35 52 48 53 27 24 25 26 18 19 32 29 26 34 33 20 13 14 19 28 18
80 82 84 81 79 78 78 77 76 78 84 98 99 96 98 97 67 58 64 67 53 60 59 44 42 41 34 52 54 45 30 25 29 28 39 27 29 32 28 29 22 16 18 30 35 44 34
84 84 84 85 84 82 81 78 81 81 84 97 99 97 98 98 70 56 49 62 61 66 76 52 54 46 50 84 45 37 32 25 27 24 24 30 32 28 28 30 29 13 14 23 37 39 37
85 85 86 86 86 84 80 82 83 85 88 92 100 98 97 99 81 54 52 47 50 52 63 78 59 57 55 75 78 67 70 59 52 44 26 33 26 26 24 23 25 21 19 21 29 35 35

GFSGBSN_sfc_rhum_033.txt.gz
RH
73 71 72 73 75 76 76 76 75 77 76 76 76 79 81 81 79 79 80 82 81 79 79 78 78 77 57 22 10 18 71 57 19 19 11 18 21 24 24 18 18 22 19 17 16 15 13
76 72 71 73 74 76 76 76 75 76 76 78 80 82 83 82 82 81 81 83 84 80 80 82 81 74 39 22 6 5 10 21 14 19 10 13 17 18 19 17 18 17 18 16 15 14 12
74 72 70 73 74 75 76 75 75 76 77 78 82 83 83 82 81 81 82 84 82 86 87 86 82 52 26 18 6 4 10 14 13 15 10 10 11 17 17 18 14 16 16 17 16 13 11
73 72 73 73 75 76 77 76 75 78 81 82 83 83 82 82 81 81 82 85 83 86 80 78 77 41 27 11 11 6 9 13 13 14 10 9 10 14 17 13 13 17 16 16 12 11 10
73 73 73 74 74 77 79 78 77 81 83 83 83 83 82 81 81 82 83 84 80 76 75 74 51 34 22 22 10 9 8 14 15 15 14 10 12 16 16 17 14 12 16 16 12 10 10
73 73 74 74 75 78 80 80 80 82 83 83 83 83 82 81 81 83 84 81 68 77 57 40 31 33 22 13 9 7 7 11 17 18 18 16 16 18 18 20 20 14 13 12 14 11 10
73 73 74 75 75 78 79 79 80 82 83 84 84 84 82 81 82 84 54 15 23 38 33 26 22 20 13 10 8 6 10 13 17 19 23 19 22 24 16 19 14 12 10 11 11 10 11
72 72 73 75 76 79 80 82 83 84 84 84 84 84 82 81 83 85 25 19 25 24 28 14 11 10 11 12 14 7 8 12 21 23 16 18 22 13 10 9 13 13 12 11 10 9 12
71 73 76 80 81 83 84 85 85 85 85 85 85 84 82 83 83 38 18 17 15 18 25 13 8 9 8 13 15 12 6 11 18 23 14 12 10 9 8 8 10 10 11 11 10 10 10
71 77 81 82 82 84 85 86 86 86 86 86 85 84 82 88 44 16 14 14 14 18 26 9 10 9 8 9 16 10 5 9 13 19 17 12 8 8 9 8 7 8 7 9 9 11 14
74 78 80 82 83 84 85 86 86 87 86 86 85 83 84 90 31 19 16 11 13 20 20 8 10 9 8 10 8 12 7 6 11 12 13 14 10 9 10 8 7 8 6 8 9 10 11
74 76 79 80 82 84 86 86 86 86 86 86 84 82 85 28 18 12 12 11 17 28 20 10 9 11 12 11 10 9 10 6 8 9 9 10 7 7 8 7 7 6 7 7 7 8 13
74 77 79 82 84 86 86 86 86 85 85 85 84 84 70 26 17 11 13 14 19 18 8 18 17 13 11 12 13 11 14 11 11 14 13 10 9 7 6 8 7 8 9 12 11 11 12
74 79 82 84 85 86 86 85 85 85 84 84 83 84 48 16 11 12 16 17 24 12 22 20 20 18 19 14 11 11 14 16 10 9 10 12 13 8 7 8 10 10 8 10 20 11 9
75 79 82 83 84 85 86 86 86 85 84 84 85 16 16 12 12 13 19 19 15 24 25 23 21 19 16 13 14 12 13 14 12 9 14 13 13 7 7 7 8 11 10 6 7 7 7
75 78 80 83 83 84 84 85 86 85 85 81 42 18 16 11 13 15 19 24 19 18 17 18 25 21 26 22 18 16 13 11 12 10 11 13 16 9 8 7 7 9 8 9 8 17 15
77 78 81 82 83 83 83 84 86 87 86 81 34 17 16 12 13 15 15 16 18 14 14 19 20 24 30 35 33 22 16 19 18 16 12 12 14 13 9 10 10 10 10 10 7 8 11
78 81 82 82 83 83 83 84 86 88 89 50 23 23 16 14 18 13 16 20 34 15 14 17 20 22 24 31 43 34 29 27 20 21 18 14 15 19 11 8 8 8 10 11 12 18 9
80 81 81 81 82 82 82 84 87 87 88 47 31 21 14 14 23 19 20 18 19 19 19 22 22 34 38 41 56 56 41 28 20 21 27 20 20 23 16 10 9 10 9 9 9 9 17
78 78 78 80 82 82 82 84 87 88 85 56 32 26 19 17 17 23 27 26 27 28 21 20 30 33 40 36 30 39 48 33 21 21 43 36 22 23 17 16 11 14 10 9 9 11 12
77 77 77 78 78 79 81 83 86 88 85 57 35 32 33 33 26 28 29 28 33 36 22 21 34 41 41 48 48 84 51 34 22 30 24 22 33 24 17 13 13 10 10 9 11 11 13
77 76 77 79 78 79 81 82 84 86 85 62 67 50 38 40 34 41 37 38 35 26 27 26 29 30 32 46 43 47 60 46 39 32 28 21 31 26 23 15 18 17 13 10 9 10 10
77 76 78 79 79 80 81 82 83 85 81 92 94 76 68 57 40 39 42 34 30 27 28 31 34 30 31 33 33 26 28 27 27 31 30 32 26 32 33 22 21 24 16 14 11 10 10
81 80 78 77 77 80 81 81 81 82 89 94 96 97 98 78 60 51 36 36 41 34 38 29 26 32 28 20 21 20 20 22 23 22 19 31 37 30 27 27 37 18 13 12 14 13 11
81 81 80 78 78 80 79 79 80 80 82 98 97 99 98 88 61 54 45 38 38 40 34 29 24 22 22 24 28 29 23 25 22 19 19 20 30 31 30 25 20 16 15 15 17 17 13
81 82 82 81 79 80 78 77 79 80 83 96 98 97 98 99 65 60 68 52 44 44 40 46 29 22 24 31 40 48 27 22 22 21 16 17 25 27 30 31 32 19 14 12 15 21 14
82 83 84 84 81 80 79 77 78 81 83 98 98 95 99 99 76 60 90 75 51 55 57 40 37 33 26 52 65 50 24 24 23 24 28 23 25 28 28 32 22 16 16 16 28 41 20
84 85 85 85 86 83 80 82 82 81 83 95 98 96 98 98 83 65 58 72 59 55 75 48 43 36 33 65 48 45 26 24 20 21 23 30 27 24 26 31 34 15 14 23 33 33 34
85 85 86 86 84 81 82 83 83 83 86 89 99 95 96 99 82 50 50 48 48 49 58 73 47 48 45 71 75 54 50 33 37 34 19 24 22 22 21 21 24 19 21 17 17 27 28

GFSGBSN_sfc_rhum_036.txt.gz
RH
73 72 73 73 76 75 75 75 74 75 75 75 76 79 81 81 78 78 79 81 81 80 80 80 78 77 62 35 18 12 68 56 18 10 15 14 19 23 30 24 20 22 46 31 27 20 25
73 73 73 74 75 75 76 76 75 77 78 80 82 83 83 82 81 81 81 82 83 80 85 87 81 76 46 33 11 10 14 23 12 12 13 12 15 17 23 23 20 18 22 24 24 16 12
74 74 74 74 75 75 77 77 77 78 80 82 83 83 82 82 81 81 81 83 81 80 88 83 83 57 31 22 9 5 8 17 12 13 12 10 10 16 19 22 16 16 20 18 18 14 13
74 74 74 75 77 79 80 78 78 82 83 83 84 84 83 82 82 81 82 83 80 79 83 77 78 49 33 13 15 12 4 8 10 10 11 8 8 13 16 17 16 17 19 22 16 15 13
74 76 76 76 79 81 82 82 82 83 84 84 84 84 84 83 81 81 82 82 78 78 76 74 62 39 28 22 15 11 7 9 10 12 12 8 8 12 13 21 22 18 23 22 19 14 12
73 75 75 74 76 81 82 83 83 84 84 84 84 84 84 81 81 82 82 76 59 78 68 45 38 38 26 16 11 11 9 7 11 14 15 13 12 13 14 19 30 22 18 18 19 13 12
72 72 75 76 77 82 83 84 85 85 85 84 84 84 83 82 81 82 58 14 13 34 16 27 26 21 14 12 8 9 9 8 12 16 22 18 18 18 16 18 18 16 13 14 13 12 12
71 73 77 78 82 84 84 85 85 86 85 85 84 84 82 82 83 79 51 13 13 14 21 14 13 12 13 12 13 9 8 10 15 22 20 20 22 16 13 15 17 18 16 12 10 10 13
73 77 82 84 84 84 85 85 86 86 86 85 85 83 82 83 81 45 11 11 9 10 19 14 10 10 8 9 14 12 8 10 15 21 22 22 18 15 15 16 14 18 18 14 11 9 11
78 82 83 84 84 84 85 86 86 86 85 85 84 82 82 87 41 19 12 9 8 10 20 11 8 7 6 6 10 10 7 12 14 20 20 19 14 15 16 16 13 15 13 12 11 11 14
80 82 83 83 84 84 86 87 86 84 84 83 82 81 82 87 37 20 11 8 8 12 26 7 7 7 6 6 6 9 8 9 15 13 19 20 14 12 15 14 8 9 7 10 10 11 11
78 80 81 83 84 86 87 87 85 83 82 82 81 81 84 29 22 16 8 8 11 21 22 13 10 14 10 7 6 7 12 8 9 12 14 18 11 9 8 8 7 6 7 7 8 9 16
75 78 80 83 85 85 86 86 85 84 83 83 82 81 73 33 20 9 9 12 15 20 9 17 20 16 17 15 9 8 13 15 12 18 18 16 16 11 8 8 7 7 8 12 13 13 14
76 81 83 84 85 85 85 85 85 84 84 83 82 82 44 21 11 9 11 15 24 13 14 16 16 16 18 15 14 10 12 15 11 10 13 16 16 12 8 8 9 9 8 11 22 14 11
78 81 83 84 85 85 85 84 85 84 83 83 80 27 19 15 10 11 16 20 19 21 18 17 15 18 20 19 25 17 13 14 13 9 16 14 15 9 9 6 7 10 11 6 8 8 9
78 80 81 84 84 85 85 85 85 84 83 80 51 33 26 12 10 13 18 26 14 13 13 13 18 16 24 20 28 32 23 11 12 9 9 12 16 9 8 7 7 8 8 10 10 20 19
79 80 82 84 84 85 85 85 86 86 86 81 38 21 14 11 11 17 20 13 15 11 11 13 14 16 17 57 42 40 33 34 20 16 11 10 13 12 9 10 10 9 10 10 8 10 14
80 83 84 84 84 85 85 85 86 87 89 55 37 32 14 12 19 14 14 16 28 18 20 15 16 15 30 48 49 62 58 53 35 21 22 14 11 17 15 8 7 8 10 11 13 21 11
81 82 82 82 84 84 84 85 87 88 88 61 45 30 14 12 22 19 17 15 14 27 26 32 20 17 24 32 53 66 76 51 33 27 30 27 23 22 20 13 9 10 9 9 10 10 20
80 79 78 81 82 83 83 84 87 89 87 66 46 41 30 21 19 25 24 21 23 20 31 44 35 19 23 33 30 82 66 53 38 29 50 34 28 25 20 20 13 14 10 9 10 13 14
76 77 78 80 82 82 83 84 86 88 88 59 40 44 44 42 36 33 26 24 36 35 51 30 23 42 40 38 41 56 67 43 41 40 27 24 34 25 18 15 12 10 10 10 12 12 15
79 80 80 80 80 82 82 83 84 86 87 46 80 97 68 58 41 36 39 29 38 24 21 27 32 30 28 28 33 47 47 48 65 36 30 25 35 30 29 20 16 17 10 10 9 9 10
80 79 80 80 80 81 82 82 83 85 81 63 55 68 97 85 49 48 46 40 30 24 25 24 24 24 28 23 26 24 23 25 30 32 32 34 34 36 37 24 22 22 16 11 10 9 9
83 81 78 77 77 79 81 82 82 83 83 83 76 96 99 91 57 50 48 52 41 34 36 26 22 27 26 18 19 16 16 18 20 22 22 31 36 37 36 33 40 20 14 13 13 10 8
82 82 78 77 78 79 79 80 79 81 83 84 96 98 98 98 65 58 52 62 55 45 32 36 30 40 45 22 25 40 29 24 22 20 20 22 29 35 36 33 28 21 17 16 16 15 10
82 82 83 82 79 79 78 76 79 84 86 95 98 98 99 100 89 63 78 64 84 82 37 31 31 24 21 26 31 49 32 23 21 21 17 19 26 31 35 37 34 25 14 11 12 20 16
83 84 84 84 81 80 79 81 81 81 85 96 99 96 99 99 83 71 87 90 58 63 57 42 39 31 24 49 74 60 34 25 26 23 26 26 31 31 32 37 25 23 17 13 24 50 36
84 85 86 86 84 81 83 82 82 82 83 94 98 97 98 99 84 68 64 82 78 75 90 56 46 72 53 73 63 89 58 55 31 24 32 26 30 32 30 36 40 22 18 35 46 38 31
85 85 86 86 86 84 83 83 84 84 86 89 99 96 95 99 79 65 69 66 68 59 78 72 56 53 54 84 83 54 56 38 37 34 22 30 30 29 26 26 32 23 23 20 18 23 32

GFSGBSN_sfc_rhum_042.txt.gz
RH
74 74 74 75 76 77 78 78 78 80 80 79 81 84 84 83 81 80 80 81 80 78 78 78 77 79 90 76 46 22 55 65 48 34 25 20 20 28 38 39 41 47 44 42 35 32 36
75 75 75 76 77 78 79 79 79 80 82 83 85 84 83 82 82 81 81 81 81 79 76 76 76 75 89 56 23 23 41 49 32 29 22 19 19 19 31 30 41 38 38 33 29 31 35
75 76 76 77 77 79 80 80 80 80 81 83 84 83 82 82 82 81 81 81 79 78 77 74 83 71 80 39 18 20 42 41 32 22 22 16 16 21 24 34 26 30 38 34 32 28 36
75 76 76 77 78 81 82 81 81 84 85 84 84 83 82 81 81 82 83 81 80 78 74 76 77 71 89 38 35 32 25 27 28 19 15 15 14 23 24 19 18 33 37 45 34 31 31
75 77 78 77 80 84 84 84 84 85 84 84 84 83 82 80 80 82 84 82 76 70 77 76 88 89 85 39 41 30 25 25 21 20 17 10 17 24 23 23 29 37 43 41 37 31 30
76 77 77 78 79 84 84 84 85 85 85 85 84 83 82 80 81 81 82 81 71 81 76 65 60 84 46 21 17 16 25 21 21 20 20 18 23 29 25 32 35 41 48 39 35 26 30
76 77 78 78 79 84 84 85 85 86 85 84 84 83 83 80 81 80 87 48 16 21 23 19 16 47 19 13 10 17 19 20 22 23 30 27 29 32 25 23 24 29 35 36 29 23 24
77 78 79 79 82 85 85 85 85 85 84 82 82 82 81 81 81 82 78 26 21 16 22 13 12 13 12 12 15 12 17 22 24 26 26 36 32 24 23 19 21 23 26 33 30 25 23
78 79 81 84 86 86 86 85 85 84 83 82 81 81 80 82 85 53 43 30 21 18 26 18 15 14 14 14 15 14 17 22 25 26 24 30 30 22 22 22 20 23 25 25 34 27 21
80 85 86 86 86 86 86 86 86 84 83 82 80 79 80 83 48 57 40 26 28 18 38 24 17 15 12 15 16 10 11 19 22 20 19 24 21 23 25 23 19 25 18 19 23 32 40
84 85 86 86 86 86 86 86 86 85 83 80 79 77 77 86 85 60 30 36 23 24 25 15 15 11 10 16 16 17 15 18 22 22 19 24 23 27 26 24 20 20 18 19 22 31 40
84 85 84 86 86 87 88 87 86 86 83 80 77 76 79 70 82 58 42 29 23 32 38 17 14 14 13 14 14 18 20 20 17 21 19 19 20 22 25 21 21 19 22 24 25 31 40
82 83 85 86 87 88 88 88 87 86 83 81 78 79 85 62 35 36 37 27 34 33 16 19 20 16 16 15 16 21 26 32 54 35 27 21 19 19 23 28 24 24 33 42 39 37 35
82 87 87 87 88 88 88 88 88 86 85 83 80 82 79 56 62 48 35 35 43 22 22 17 18 17 17 22 26 22 30 40 47 66 50 26 27 21 19 27 30 28 28 44 48 40 29
84 86 86 87 88 88 87 88 88 87 85 83 84 69 65 44 42 44 34 52 43 26 21 24 23 28 27 25 36 32 34 45 49 59 86 75 25 20 18 19 22 28 31 22 24 39 26
84 84 85 87 87 87 86 87 88 88 87 85 83 88 64 37 32 31 39 54 39 24 22 25 41 36 39 36 42 43 37 33 50 47 50 68 67 20 18 16 19 18 18 27 27 33 37
83 84 86 86 86 86 86 87 88 89 89 88 89 77 49 28 27 35 44 42 25 18 23 35 43 46 36 34 30 43 35 31 43 50 52 62 71 40 19 20 23 27 18 20 19 26 28
83 85 85 85 85 85 86 87 89 90 92 86 97 90 46 33 38 48 51 36 36 24 31 35 33 38 40 44 48 44 44 52 55 58 75 60 83 85 36 16 15 21 21 17 17 25 28
85 85 84 83 84 85 86 87 90 91 91 92 100 93 50 44 74 75 52 46 34 40 46 43 41 43 47 54 63 67 58 41 48 59 84 88 84 92 44 27 20 19 21 17 19 20 24
82 82 80 82 83 84 85 87 90 90 90 98 98 83 73 70 68 80 80 63 53 37 36 42 44 48 49 59 65 66 59 51 45 50 63 90 90 91 86 52 40 27 16 18 17 21 17
78 78 77 78 80 81 83 85 88 89 89 97 90 88 90 94 82 89 77 64 54 54 51 45 41 45 58 78 68 66 50 42 38 51 69 93 96 62 52 41 38 40 25 17 15 13 17
79 78 77 77 78 80 83 85 87 87 89 97 94 94 95 80 90 82 75 66 73 72 65 61 72 64 48 64 62 73 60 55 58 57 74 88 88 67 53 40 38 34 26 26 13 12 19
79 78 78 79 79 79 81 83 84 86 89 97 91 93 95 94 86 97 74 76 76 60 77 60 67 71 64 56 53 58 54 46 45 61 80 85 73 76 71 48 36 42 36 28 17 13 14
83 80 80 79 78 77 76 78 84 86 87 96 97 96 100 98 95 97 93 91 89 84 93 67 62 84 68 55 52 54 47 42 32 31 55 69 79 69 69 56 57 39 31 30 41 43 45
84 83 81 80 78 75 77 80 83 87 89 100 98 99 99 99 94 93 93 93 93 90 83 68 57 62 65 75 80 73 51 40 39 41 48 53 64 70 74 68 48 43 43 36 44 50 40
85 86 83 80 78 80 77 81 83 87 89 98 99 98 99 100 95 90 96 95 98 98 82 61 60 65 62 74 72 78 67 91 77 57 39 46 62 58 62 68 76 59 42 32 39 61 37
85 86 83 83 82 82 81 81 82 83 88 97 98 95 99 100 87 92 97 97 92 95 97 87 84 84 80 98 99 98 96 93 97 94 64 80 79 60 51 65 78 57 46 31 65 64 44
86 85 85 84 84 83 82 83 83 84 86 96 98 97 98 99 88 74 79 96 94 96 99 91 91 85 93 96 96 99 99 98 95 94 94 92 95 97 81 80 97 53 56 66 55 40 40
86 85 85 86 84 83 82 85 86 88 88 89 100 98 99 99 92 85 80 83 90 88 98 94 95 89 87 97 95 84 99 94 79 93 59 92 96 97 91 91 60 51 81 58 50 50 54

GFSGBSN_sfc_rhum_045.txt.gz
RH
75 75 75 76 76 77 78 78 77 78 78 78 78 81 82 81 78 78 78 79 79 79 77 77 77 74 90 72 39 22 68 56 53 38 32 33 38 41 50 50 50 66 62 53 55 52 43
76 76 76 77 77 77 78 78 77 78 79 80 82 85 84 83 82 81 81 82 81 80 78 76 78 76 89 40 19 26 52 49 46 29 31 22 26 31 35 37 51 43 44 44 42 44 39
77 77 77 77 78 78 79 79 78 79 81 83 85 85 85 84 82 82 82 82 81 81 82 77 74 70 86 36 28 33 48 48 45 24 28 21 20 25 26 39 28 33 43 37 36 39 38
76 77 77 78 78 79 81 80 80 83 85 86 85 85 84 83 82 82 83 83 82 78 77 77 78 67 89 43 46 39 32 36 37 29 19 21 19 25 29 24 21 38 42 54 38 35 32
76 77 78 77 77 80 83 82 82 85 85 85 84 84 83 83 81 83 84 85 77 76 80 78 88 88 88 44 36 25 28 28 38 35 23 14 19 26 27 30 33 34 51 52 42 34 33
76 77 77 77 77 82 85 85 85 85 85 84 83 82 82 81 82 85 86 83 72 84 75 69 65 72 40 17 13 10 22 25 24 28 23 22 24 30 36 35 47 39 49 45 41 36 36
77 77 78 78 79 83 86 85 86 86 85 84 82 82 80 80 82 85 91 24 28 25 22 21 17 31 17 15 12 14 12 27 23 27 32 28 28 28 23 26 28 34 40 41 36 30 32
78 79 80 80 82 85 86 86 86 85 85 83 81 81 79 78 82 88 70 25 27 28 27 16 14 15 13 14 16 13 13 32 32 33 32 37 31 21 21 25 25 24 29 35 30 28 30
79 81 83 84 86 87 87 87 86 86 85 82 81 79 78 79 87 60 57 36 31 24 33 20 17 16 15 17 17 16 16 22 31 36 31 35 33 23 26 25 26 25 27 28 30 31 31
81 84 87 86 87 87 87 87 87 85 84 82 80 78 77 84 46 63 38 32 42 26 34 21 17 14 11 16 19 15 18 17 25 30 29 31 23 25 25 29 26 34 22 21 24 31 43
82 84 86 86 86 87 87 87 87 86 84 82 81 79 77 88 68 48 28 46 42 23 24 17 15 11 12 14 15 18 16 24 26 24 25 26 26 26 28 27 24 26 21 23 24 33 52
81 82 82 84 85 87 88 88 87 86 85 83 82 81 81 83 89 63 47 40 23 28 32 20 16 15 14 16 17 18 22 34 35 42 22 24 18 21 23 23 22 22 24 29 34 38 40
81 82 83 84 87 88 88 87 87 87 86 84 82 82 86 68 35 54 40 29 31 32 19 21 23 19 18 30 25 25 38 65 76 70 55 28 24 19 23 26 27 26 35 46 50 49 40
81 83 85 87 88 88 87 87 88 88 87 86 85 84 78 60 61 55 34 33 42 28 29 22 24 23 25 36 35 28 34 56 57 69 85 93 37 23 18 29 31 33 33 54 60 58 41
81 82 84 87 87 87 87 88 89 88 87 86 85 82 66 51 39 44 34 52 46 35 28 29 31 38 37 33 40 37 41 54 55 61 83 88 70 45 29 19 27 38 37 31 39 35 33
80 80 81 85 87 87 87 88 89 89 88 88 94 95 69 41 36 34 40 57 45 26 26 34 47 44 48 35 36 52 38 42 53 51 58 72 89 56 38 21 23 30 28 42 36 46 39
79 80 81 83 86 86 87 88 89 90 90 89 96 79 49 41 33 38 45 48 32 27 30 39 44 48 45 47 47 53 42 45 54 56 47 70 72 69 54 28 23 30 32 34 35 35 37
80 83 84 85 86 86 87 87 89 91 93 90 98 61 47 43 59 68 64 55 46 32 36 38 38 40 43 47 56 53 63 59 51 49 76 74 92 91 78 43 44 39 29 25 33 41 33
82 81 82 82 84 84 84 87 90 91 93 95 99 98 63 51 89 94 72 59 43 45 44 44 44 46 47 54 64 66 67 46 50 57 76 78 98 94 55 42 36 35 30 26 23 30 30
78 78 76 78 79 79 84 86 90 91 91 97 97 90 81 76 84 91 93 77 57 40 44 54 46 50 56 62 62 64 70 52 44 49 72 74 96 92 81 76 57 55 47 41 31 26 24
78 77 76 76 78 80 83 86 89 90 90 96 93 90 92 94 92 95 92 80 66 69 58 57 53 70 85 79 68 70 58 54 53 66 80 91 92 88 75 64 57 54 50 43 46 22 19
80 79 78 80 80 76 76 83 85 86 89 96 96 96 95 96 90 92 86 75 76 67 70 72 80 81 78 83 63 60 62 68 65 80 85 91 89 90 82 54 49 53 40 38 38 30 19
82 81 81 80 79 76 77 82 86 87 89 98 96 94 93 87 87 97 96 95 94 94 85 73 89 95 88 69 60 58 58 59 60 79 94 96 95 94 93 54 48 53 47 44 38 49 42
83 82 81 79 75 77 80 82 84 88 90 97 93 97 100 96 96 97 94 94 93 94 98 89 82 90 68 54 64 70 77 65 60 56 67 91 100 99 92 67 69 50 49 41 41 40 42
84 82 80 78 79 82 82 83 83 88 90 100 98 99 99 99 94 94 94 95 93 93 94 80 68 68 76 88 91 80 70 67 63 52 54 60 98 97 75 82 56 53 56 62 63 48 38
82 81 80 81 83 82 82 82 83 87 89 98 99 98 99 100 96 86 96 94 99 98 94 78 63 78 73 89 80 82 74 93 91 57 49 69 89 99 90 87 86 68 56 49 46 64 48
82 80 84 83 80 81 81 81 81 83 89 98 99 95 99 100 86 90 97 97 92 97 99 95 82 93 84 98 99 98 96 100 99 95 94 99 100 97 97 97 89 68 57 47 74 82 58
83 84 84 83 84 83 83 84 83 85 87 96 98 97 98 99 89 76 83 96 96 96 99 94 93 85 95 96 97 98 100 100 100 99 98 99 100 99 99 99 99 58 69 79 73 56 53
84 84 85 86 86 86 85 85 86 88 86 91 99 98 98 100 93 87 81 86 95 90 98 94 95 88 98 98 97 99 100 99 100 97 83 97 98 99 99 93 68 61 86 67 54 57 58

GFSGBSN_sfc_rhum_048.txt.gz
RH
75 75 76 76 77 78 78 78 78 79 79 79 79 81 82 80 80 80 81 80 81 81 82 80 77 73 92 62 34 24 58 56 54 59 52 51 66 54 78 68 56 78 66 60 56 57 58
76 76 76 76 76 76 78 79 79 78 79 79 82 84 84 84 83 82 83 84 81 82 84 80 77 75 90 27 21 35 53 56 58 51 48 37 56 41 48 54 63 51 53 53 49 50 52
76 76 76 77 76 78 80 80 79 78 79 80 83 84 83 82 82 82 84 85 83 84 80 78 77 72 85 38 36 45 54 63 57 48 38 28 31 40 35 44 34 44 44 37 38 46 46
76 77 77 77 78 80 81 80 79 80 82 84 82 83 81 82 81 83 85 87 84 78 78 78 69 77 81 43 48 42 55 45 46 41 24 22 21 33 35 29 24 38 44 56 42 40 39
76 77 78 77 78 81 83 82 80 83 84 84 84 82 80 79 81 83 86 87 77 80 80 76 92 90 42 42 25 25 28 36 46 42 32 15 24 31 31 37 42 36 63 55 48 37 39
77 78 78 78 79 82 84 84 84 85 85 84 84 82 80 79 81 85 88 80 78 85 80 72 66 60 26 15 14 13 19 34 40 39 34 26 28 33 41 45 63 45 48 50 47 38 43
77 78 79 79 80 81 84 85 85 85 85 84 84 82 81 79 82 87 92 34 33 33 30 34 19 22 17 14 13 14 14 31 27 33 43 32 34 30 25 36 37 38 45 43 39 32 49
79 80 81 81 81 83 84 86 86 85 85 84 83 82 81 80 83 88 63 32 34 35 40 20 18 17 15 16 17 16 13 38 33 39 34 40 34 24 21 25 32 32 34 40 34 33 40
81 82 83 82 83 85 86 86 85 86 85 83 83 82 81 83 88 58 55 30 33 25 35 21 18 18 15 19 19 18 20 21 37 38 36 38 30 21 22 29 31 33 36 32 40 30 31
82 83 85 84 84 86 86 86 86 86 85 84 83 81 82 85 48 62 32 46 47 32 28 21 17 14 12 15 19 15 16 24 24 41 36 35 28 23 23 26 29 45 27 27 26 36 44
82 83 84 85 85 86 87 86 86 86 86 84 84 83 83 88 82 43 32 54 50 22 25 18 17 12 13 17 16 18 24 34 29 24 36 41 33 30 30 23 25 25 26 26 26 35 41
81 81 81 82 83 86 87 88 88 87 86 85 84 85 86 79 84 58 57 56 25 26 30 22 18 19 26 25 24 23 46 42 46 51 34 26 24 27 25 25 24 26 30 31 37 39 45
80 81 82 82 86 88 88 88 88 88 87 87 85 86 89 72 52 49 62 27 29 30 22 25 27 24 29 36 32 29 49 63 75 85 74 49 25 23 24 29 26 29 33 52 52 52 44
80 82 84 86 87 88 88 88 88 88 87 88 88 90 78 64 62 70 34 31 40 30 35 28 28 29 31 33 38 32 46 73 59 70 88 88 42 28 23 28 34 32 36 54 62 62 41
81 82 83 85 87 88 88 89 88 88 88 88 88 90 71 54 42 41 34 51 49 40 30 32 34 41 40 32 40 37 50 74 62 65 85 94 70 47 38 34 28 38 40 34 49 54 50
81 80 81 84 87 88 88 88 88 88 89 90 96 95 69 44 45 32 38 58 42 32 30 36 43 44 52 39 43 48 47 58 60 55 52 77 95 58 48 39 29 36 30 45 52 61 53
79 81 81 82 86 87 87 87 88 89 91 90 96 66 47 47 36 41 47 52 40 31 35 38 43 43 49 47 53 56 49 61 58 58 55 85 82 72 60 49 33 34 39 47 38 45 54
80 81 83 84 84 85 85 87 89 91 93 91 97 52 46 50 59 83 76 67 55 43 39 41 39 40 42 45 58 54 55 64 55 58 81 84 93 88 82 54 48 51 51 43 43 52 45
81 81 80 82 83 84 85 87 89 91 94 98 98 98 68 54 85 95 88 74 58 51 55 50 49 43 48 53 68 66 66 52 53 63 84 84 93 96 64 54 51 50 43 52 51 41 42
81 80 79 81 82 82 81 83 86 88 91 96 96 85 78 82 93 94 94 85 72 50 56 59 53 57 60 65 64 60 72 55 51 55 64 80 92 89 83 68 67 67 54 50 56 60 42
81 81 80 80 79 77 79 85 87 86 89 94 94 94 93 96 94 93 91 85 80 76 64 59 58 71 82 88 68 74 65 63 65 63 87 92 96 80 84 78 66 62 62 56 55 50 57
82 81 81 78 76 76 76 85 87 88 87 94 96 96 96 96 81 82 87 87 87 80 85 78 74 66 88 91 67 60 64 70 82 79 95 96 93 84 91 65 62 57 49 47 46 44 43
80 80 78 76 76 77 82 85 88 89 88 97 95 92 94 87 86 96 93 96 94 95 83 82 92 97 96 92 82 78 56 62 67 87 97 94 94 91 91 66 59 58 46 47 48 48 57
82 79 76 76 80 82 83 85 86 90 89 97 94 98 100 98 94 95 94 93 93 94 98 91 90 96 83 74 79 75 84 79 76 73 91 98 97 97 96 76 81 69 52 41 46 53 60
82 79 78 82 82 81 81 83 83 88 90 99 98 99 99 99 93 93 91 92 86 90 95 91 72 69 85 81 91 88 80 78 77 70 91 90 97 94 88 78 59 56 62 66 61 54 61
80 82 83 79 79 80 81 81 82 86 90 98 99 97 99 100 96 84 95 91 98 99 96 89 72 81 82 90 98 96 73 87 92 74 68 94 94 98 98 89 97 83 64 54 55 65 59
82 82 82 83 84 84 82 82 83 83 90 98 99 95 98 99 85 87 97 98 90 97 99 96 82 92 85 97 99 98 98 98 98 90 93 98 100 95 92 93 94 80 74 61 68 73 62
83 83 84 87 87 85 85 85 84 85 86 96 98 97 98 99 90 76 80 96 97 96 99 94 91 91 96 99 99 99 99 100 100 97 88 95 99 96 98 99 100 76 73 78 74 66 63
86 83 87 87 87 86 85 86 86 86 86 90 99 98 98 100 94 86 84 82 90 96 98 95 95 90 92 100 100 100 100 99 100 98 97 99 98 99 99 99 92 86 86 76 75 77 72